Location: Unspecified
(37.7749°N, 0.0000°E)
Time: 14:11:07
(UTC+00:00)

AO-85 - Visible Passes

Search period start: 04 April 2026 00:00
Search period end: 14 April 2026 00:00
Orbit: 507 x 686 km, 64.8° (Epoch: 29 March)

Date Brightness Start Highest point End Pass type
(mag) Time Alt. Az. Time Alt. Az. Time Alt. Az.
9 Apr ? 05:03:14 10° N 05:05:51 17° NE 05:08:32 10° E visible
11 Apr ? 19:26:41 10° SSE 19:29:43 20° ESE 19:32:40 10° ENE visible
11 Apr ? 21:05:22 10° WSW 21:08:54 29° NW 21:12:20 10° N visible
12 Apr ? 03:54:53 10° NNE 03:56:01 11° NE 03:57:09 10° ENE visible
12 Apr ? 19:35:40 10° S 19:39:28 39° ESE 19:43:08 10° NE visible
12 Apr ? 21:16:18 10° W 21:18:57 17° NW 21:21:32 10° N visible
13 Apr ? 04:03:19 10° N 04:06:10 19° NE 04:09:04 10° E visible
13 Apr ? 19:45:14 10° SSW 19:49:16 82° ESE 19:53:10 10° NNE visible
